Tracking 27380 objects as of 6-Jun-2023
HD Live streaming from Space Station
objects crossing your sky now

OPS 4682 DEB

Track OPS 4682 DEB now!
10-day predictions


NORAD ID: 38449
Int'l Code: 1965-027FE
Perigee: 1,266.3 km
Apogee: 1,313.7 km
Inclination: 90.2 °
Period: 111.2 minutes
Semi major axis: 7661 km
RCS: 0.0094 m2 (small)
Launch date: April 3, 1965
Source: United States (US)
Launch site: AIR FORCE WESTERN TEST RANGE (AFWTR)

Note: This is SATELLITE DEBRIS
Your satellite tracking list
Your tracking list is empty




NASA's NSSDC Master Catalog

Two Line Element Set (TLE):
1 38449U 65027FE  23157.32534259  .00000052  00000-0  16099-3 0  9994
2 38449  90.2489 346.1819 0030980 187.0771 172.9915 12.94714624949146
Source of the keplerian elements: AFSPC